Change the Weather History Date:

Friday, November 9, 2012

  Actual Average (KDET) Record (KDET)
Temperature  
Mean Temperature 43 °F -  
Max Temperature 54 °F 51 °F 73 °F (1999)
Min Temperature 33 °F 38 °F 20 °F (1991)
Degree Days  
Heating Degree Days 22    
Moisture  
Dew Point 35 °F    
Average Humidity 73    
Maximum Humidity 91    
Minimum Humidity 52    
Precipitation  
Precipitation 0.00 in - - ()
Sea Level Pressure  
Sea Level Pressure 30.17 in    
Wind  
Wind Speed 3 mph (SSW)    
Max Wind Speed 9 mph    
Max Gust Speed -    
Visibility 6 miles    
Events Rain    
Averages and records for this station are not official NWS values.
T = Trace of Precipitation, MM = Missing Value Source: NWS Daily Summary

Daily Weather History Graph

Daily Weather History Graph

Search for Another Location

Airport or City:

Trip Planner

Search our weather history database for the weather conditions in past years. The results will help you decide how hot, cold, wet, or windy it might be!

Date:

Astronomy

Nov. 09, 2012 Rise Set
Actual Time 7:17 AM EST 5:15 PM EST
Civil Twilight 6:47 AM EST 5:45 PM EST
Nautical Twilight 6:13 AM EST 6:19 PM EST
Astronomical Twilight 5:40 AM EST 6:52 PM EST
Moon 2:08 AM EST (11/9) 2:33 PM EST (11/9)
Length of Visible Light 10h 58m
Length of Day
9h 58m
Waning Crescent, 23% of the Moon is Illuminated
Nov 9
Waning Crescent
Nov 13
New
Nov 20
First Quarter
Nov 28
Full
Dec 6
Last Quarter

Hourly Weather History & Observations

Time (EST) Temp. Windchill Dew Point Humidity Pressure Visibility Wind Dir Wind Speed Gust Speed Precip Events Conditions
12:14 AM 35.6 °F - 31.8 °F 86% 30.17 in 7.0 mi Calm Calm - N/A   Clear
12:35 AM 35.8 °F 33.0 °F 31.8 °F 86% 30.16 in 10.0 mi SSW 3.5 mph - N/A   Clear
12:55 AM 36.1 °F 32.3 °F 32.0 °F 85% 30.16 in 7.0 mi SW 4.6 mph - N/A   Clear
1:14 AM 36.5 °F 33.9 °F 32.2 °F 84% 30.16 in 7.0 mi SW 3.5 mph - N/A   Clear
1:35 AM 36.1 °F 33.5 °F 32.0 °F 85% 30.17 in 7.0 mi SW 3.5 mph - N/A   Clear
1:54 AM 36.0 °F 33.3 °F 32.0 °F 86% 30.17 in 7.0 mi SW 3.5 mph - N/A   Clear
2:14 AM 35.8 °F - 32.0 °F 86% 30.17 in 7.0 mi Calm Calm - N/A   Clear
2:35 AM 35.6 °F - 32.0 °F 87% 30.17 in 7.0 mi Calm Calm - N/A   Clear
2:54 AM 35.4 °F - 31.8 °F 87% 30.18 in 7.0 mi Calm Calm - N/A   Clear
3:15 AM 34.7 °F - 31.5 °F 88% 30.18 in 5.0 mi Calm Calm - N/A   Clear
3:34 AM 33.6 °F - 31.1 °F 90% 30.18 in 5.0 mi Calm Calm - N/A   Clear
3:55 AM 33.3 °F - 30.9 °F 91% 30.18 in 5.0 mi Calm Calm - N/A   Scattered Clouds
4:15 AM 33.8 °F - 31.1 °F 90% 30.18 in 5.0 mi Calm Calm - N/A   Mostly Cloudy
4:34 AM 34.2 °F - 31.5 °F 90% 30.18 in 5.0 mi Calm Calm - N/A   Overcast
4:55 AM 35.1 °F - 31.8 °F 88% 30.18 in 7.0 mi Calm Calm - N/A   Overcast
5:14 AM 35.8 °F 33.0 °F 32.0 °F 86% 30.18 in 7.0 mi SW 3.5 mph - N/A   Overcast
5:35 AM 36.1 °F 32.3 °F 32.0 °F 85% 30.18 in 7.0 mi SW 4.6 mph - N/A   Overcast
5:54 AM 36.3 °F 33.7 °F 32.0 °F 84% 30.18 in 7.0 mi SW 3.5 mph - N/A   Overcast
6:14 AM 36.5 °F - 32.0 °F 84% 30.19 in 7.0 mi Calm Calm - N/A   Overcast
6:35 AM 36.5 °F 33.9 °F 32.0 °F 84% 30.19 in 7.0 mi SW 3.5 mph - N/A   Overcast
6:54 AM 36.9 °F 34.3 °F 32.0 °F 83% 30.19 in 7.0 mi WSW 3.5 mph - N/A   Overcast
7:14 AM 37.0 °F 34.5 °F 32.0 °F 82% 30.20 in 7.0 mi WSW 3.5 mph - N/A   Overcast
7:34 AM 37.4 °F 33.8 °F 32.2 °F 81% 30.20 in 5.0 mi WSW 4.6 mph - N/A   Haze
7:54 AM 37.8 °F 34.2 °F 32.4 °F 81% 30.20 in 5.0 mi WSW 4.6 mph - N/A   Haze
8:15 AM 38.5 °F 35.0 °F 32.9 °F 80% 30.21 in 5.0 mi SW 4.6 mph - N/A   Haze
8:34 AM 38.8 °F 34.6 °F 32.9 °F 79% 30.21 in 5.0 mi SW 5.8 mph - N/A   Haze
8:54 AM 39.6 °F 35.4 °F 33.3 °F 78% 30.22 in 5.0 mi SW 5.8 mph - N/A   Haze
9:15 AM 40.5 °F 37.3 °F 33.4 °F 76% 30.22 in 5.0 mi SW 4.6 mph - N/A   Haze
9:35 AM 41.7 °F 38.0 °F 33.8 °F 73% 30.22 in 5.0 mi SW 5.8 mph - N/A   Haze
9:54 AM 42.8 °F 39.3 °F 34.0 °F 71% 30.21 in 5.0 mi SW 5.8 mph - N/A   Haze
10:15 AM 44.1 °F 40.1 °F 34.5 °F 69% 30.20 in 5.0 mi SW 6.9 mph - N/A   Haze
10:34 AM 45.0 °F 40.6 °F 34.9 °F 68% 30.20 in 5.0 mi SW 8.1 mph - N/A   Haze
10:54 AM 45.5 °F 41.8 °F 34.7 °F 66% 30.20 in 5.0 mi SW 6.9 mph - N/A   Haze
11:15 AM 46.6 °F - 35.2 °F 65% 30.20 in 5.0 mi SW 6.9 mph - N/A   Haze
11:34 AM 46.9 °F - 35.1 °F 63% 30.20 in 7.0 mi SW 8.1 mph - N/A   Overcast
11:55 AM 47.1 °F - 35.1 °F 63% 30.19 in 7.0 mi WSW 8.1 mph - N/A   Overcast
12:15 PM 48.9 °F - 35.2 °F 59% 30.18 in 7.0 mi SSW 9.2 mph - N/A   Overcast
12:34 PM 49.3 °F - 35.2 °F 58% 30.18 in 7.0 mi SW 5.8 mph - N/A   Overcast
12:55 PM 51.1 °F - 35.6 °F 55% 30.17 in 10.0 mi SW 8.1 mph - N/A   Overcast
1:15 PM 51.3 °F - 35.6 °F 55% 30.17 in 7.0 mi WSW 6.9 mph - N/A   Scattered Clouds
1:34 PM 51.4 °F - 35.8 °F 55% 30.15 in 7.0 mi SSW 5.8 mph - N/A   Clear
1:55 PM 51.8 °F - 35.8 °F 54% 30.15 in 7.0 mi South 5.8 mph - N/A   Clear
2:15 PM 52.3 °F - 36.3 °F 54% 30.14 in 7.0 mi South 6.9 mph - N/A   Clear
2:34 PM 52.7 °F - 36.1 °F 53% 30.13 in 10.0 mi SSW 5.8 mph - N/A   Clear
2:55 PM 53.1 °F - 36.5 °F 53% 30.13 in 7.0 mi South 8.1 mph - N/A   Clear
3:15 PM 53.6 °F - 36.5 °F 52% 30.13 in 7.0 mi South 6.9 mph - N/A   Clear
3:35 PM 53.6 °F - 36.1 °F 52% 30.12 in 10.0 mi South 9.2 mph - N/A   Clear
3:54 PM 53.6 °F - 37.2 °F 54% 30.13 in 7.0 mi South 8.1 mph - N/A   Clear
4:15 PM 51.3 °F - 37.4 °F 59% 30.13 in 7.0 mi South 4.6 mph - N/A   Clear
4:35 PM 50.7 °F - 37.6 °F 61% 30.13 in 7.0 mi SSE 5.8 mph - N/A   Scattered Clouds
4:54 PM 50.9 °F - 37.6 °F 60% 30.13 in 7.0 mi South 3.5 mph - N/A   Overcast
5:15 PM 50.5 °F - 37.4 °F 61% 30.13 in 7.0 mi Calm Calm - N/A   Mostly Cloudy
5:35 PM 50.4 °F - 37.4 °F 61% 30.13 in 7.0 mi South 5.8 mph - N/A   Mostly Cloudy
5:54 PM 50.4 °F - 37.4 °F 61% 30.13 in 7.0 mi SSE 4.6 mph - N/A   Overcast
6:15 PM 50.4 °F - 37.8 °F 62% 30.14 in 7.0 mi SSE 4.6 mph - N/A   Overcast
6:34 PM 50.0 °F - 38.1 °F 64% 30.14 in 7.0 mi SSE 4.6 mph - N/A   Overcast
6:55 PM 49.6 °F - 37.9 °F 64% 30.14 in 7.0 mi Calm Calm - N/A   Overcast
7:14 PM 48.4 °F - 40.5 °F 74% 30.13 in 5.0 mi Calm Calm - N/A Rain Light Rain
7:35 PM 48.4 °F - 40.3 °F 74% 30.13 in 7.0 mi Calm Calm - N/A   Overcast
7:54 PM 48.4 °F - 40.8 °F 75% 30.13 in 7.0 mi ESE 3.5 mph - N/A   Overcast
8:14 PM 48.6 °F - 40.1 °F 73% 30.14 in 7.0 mi Calm Calm - N/A   Overcast
8:35 PM 48.6 °F - 39.9 °F 72% 30.14 in 7.0 mi Calm Calm - N/A   Overcast
8:54 PM 48.2 °F - 39.7 °F 73% 30.14 in 7.0 mi ENE 5.8 mph - N/A   Overcast
9:14 PM 48.2 °F - 39.7 °F 73% 30.14 in 7.0 mi ENE 5.8 mph - N/A   Overcast
9:35 PM 47.5 °F - 39.7 °F 75% 30.15 in 7.0 mi ENE 8.1 mph - N/A   Overcast
9:54 PM 47.3 °F - 39.9 °F 76% 30.16 in 7.0 mi ENE 8.1 mph - N/A   Overcast
10:15 PM 46.9 °F - 40.3 °F 78% 30.15 in 5.0 mi East 6.9 mph - N/A   Haze
10:35 PM 46.8 °F - 40.6 °F 79% 30.16 in 5.0 mi ENE 5.8 mph - N/A   Haze
10:54 PM 46.8 °F - 41.0 °F 80% 30.17 in 5.0 mi East 4.6 mph - N/A   Haze
11:15 PM 46.8 °F - 41.0 °F 80% 30.16 in 5.0 mi East 8.1 mph - N/A   Haze
11:34 PM 46.6 °F - 41.0 °F 81% 30.15 in 5.0 mi ENE 5.8 mph - N/A   Haze
11:55 PM 46.4 °F 45.2 °F 41.0 °F 81% 30.16 in 5.0 mi East 3.5 mph - N/A   Haze